Location: Stamford Observatory
(41.1241°N, 73.5498°W)
Time: 15:51:32
(UTC-04:00)

Daily predictions for brighter satellites

Satellite Brightness Start Highest point End
(mag) Time Altitude Azimuth Time Altitude Azimuth Time Altitude Azimuth
Cosmos 2360 Rocket 3.5 20:08:48 10° SE 20:12:35 19° E 20:16:21 10° ENE
NOSS 2-3 (D) 4.3 20:08:39 10° S 20:12:55 38° ESE 20:17:44 10° NE
Cosmos 1980 Rocket 3.0 20:07:48 10° SW 20:13:18 58° WNW 20:18:50 10° NNE
USA 267 3.5 20:06:51 10° SE 20:13:23 72° SW 20:19:58 10° NW
Cosmos 2026 Rocket 4.1 20:07:03 10° S 20:13:24 90° NE 20:19:49 10° N
Okean 1 3.4 20:12:38 10° N 20:16:37 80° W 20:20:36 10° S
Cosmos 1536 Rocket 4.0 20:12:37 10° N 20:16:43 40° ENE 20:20:48 10° SSE
BREEZE-M DEB (TANK) 1.7 20:13:45 10° SW 20:18:32 81° SSE 20:20:43 10° ENE
Envisat 3.3 20:16:01 10° SE 20:20:53 49° ENE 20:25:46 10° N
Cosmos 1939 Rocket 3.8 20:18:44 10° SE 20:22:13 30° ENE 20:25:39 10° N
Lacrosse 5 rocket 2.3 20:19:05 10° WNW 20:22:32 39° SW 20:26:08 10° SSE
Cosmos 1536 3.7 20:19:09 10° SSE 20:22:43 30° E 20:26:18 10° NNE
Cosmos 1655 Rocket 4.2 20:27:42 10° S 20:34:00 83° W 20:40:23 10° N
Cosmos 44 4.2 20:30:06 10° NW 20:34:18 42° WSW 20:38:39 10° S
Meteor 2-4 Rocket 3.9 20:31:00 10° N 20:36:29 56° ENE 20:42:05 10° SSE
CZ-2D R/B 3.8 20:33:38 10° S 20:37:27 61° W 20:41:17 10° NNW
Okean 2 Rocket 4.5 20:33:17 10° SSW 20:37:35 44° WNW 20:41:56 10° N
ATLAS 2AS CENTAUR R/B 3.1 20:31:42 10° S 20:39:04 55° ESE 20:46:54 10° NE
CZ-4B DEB 4.3 20:43:53 16° E 20:44:25 16° ENE 20:46:19 10° NNE
BREEZE-M DEB (TANK) 2.5 20:42:03 10° SW 20:44:49 84° SSE 20:52:24 10° ENE
Meteor 1-13 Rocket 4.4 20:39:08 10° N 20:45:08 88° W 20:51:03 10° S
BREEZE-M DEB (TANK) 3.8 20:44:10 10° WNW 20:47:35 61° SSW 20:59:03 13° SE
NOSS 2-3 (E) 3.8 20:45:03 10° SSW 20:49:42 86° SE 20:55:08 10° NE
Delta 2 Rocket 4.4 20:46:14 10° SW 20:49:45 29° SSE 20:51:53 20° ESE
Helios 1B rocket 3.0 20:50:42 10° NNE 20:54:29 35° E 20:57:35 14° SSE
Resurs 1-3 4.4 20:51:36 10° S 20:55:52 51° W 21:00:10 10° NNW
USA 186 3.0 20:52:49 10° S 20:56:03 45° W 20:59:19 10° NNW
Lacrosse 5 1.8 20:53:09 10° SW 20:58:12 72° SE 21:03:16 10° NE
Cosmos 1850 Rocket 4.1 20:54:48 10° NNW 21:00:09 80° WSW 21:05:14 11° SSE
Cosmos 1331 Rocket 4.3 20:57:21 10° S 21:02:10 42° ESE 21:07:05 10° NNE
Atlas Centaur 2 3.8 20:57:23 10° WSW 21:04:34 33° SSW 21:08:53 19° SE
SL-8 R/B 4.5 21:02:32 10° WNW 21:07:08 45° NNE 21:10:16 19° E
SeaSat 1 2.4 21:02:55 10° NNE 21:07:53 87° WNW 21:12:48 10° SSW
ARGOS 4.0 21:08:23 23° ESE 21:10:40 32° ENE 21:15:22 10° N
Cosmos 1607 4.0 21:07:27 10° NNW 21:13:57 89° ENE 21:18:19 22° SSE
Okean 1 Rocket 3.0 21:13:01 10° S 21:17:21 89° W 21:21:46 10° N
Cosmos 220 Rocket 3.9 21:13:56 10° NNW 21:18:16 87° ENE 21:20:29 29° SSE
Cosmos 1300 Rocket 4.2 21:14:07 10° SSW 21:18:20 56° W 21:22:35 10° N
Cosmos 2263 Rocket 2.4 21:14:03 10° NNW 21:19:43 69° WSW 21:23:58 18° S
Cosmos 1025 Rocket 2.9 21:17:13 10° N 21:21:29 66° E 21:23:14 34° SSE
Cosmos 2278 Rocket 4.2 21:19:57 10° NNE 21:22:39 13° NE 21:24:48 11° ENE
Cosmos 2322 Rocket 3.4 21:18:02 10° SW 21:23:28 45° WNW 21:28:57 10° NNE
Okean 2 3.4 21:19:31 10° N 21:23:34 59° E 21:24:45 40° SE
YAOGAN 6 2.8 21:22:14 25° S 21:24:09 64° W 21:27:39 10° NNW
Cosmos 1844 Rocket 3.7 21:21:36 10° N 21:26:40 31° ENE 21:28:30 26° E
GPS 2-05 Rocket1 4.5 21:24:11 10° WSW 21:26:33 20° SSW 21:26:33 20° SSW
Tiangong 1 1.6 21:24:29 10° W 21:26:47 39° SW 21:26:47 39° SW
Cosmos 1818 4.1 21:29:42 33° ESE 21:29:42 33° ESE 21:34:23 10° NE
Cosmos 2237 4.3 21:24:12 10° S 21:29:40 52° ESE 21:35:12 10° NNE
Okean 1-7 Rocket 3.5 21:26:34 10° N 21:31:05 81° E 21:32:58 35° SSE
Cosmos 2266 Rocket 4.3 21:25:29 10° SSW 21:31:27 64° W 21:37:27 10° N
Resurs 01 Rocket 4.1 21:28:50 10° SW 21:32:05 20° W 21:35:22 10° NW
Spot 1 4.5 21:29:50 24° S 21:33:00 83° WSW 21:38:04 10° NNW
SL-16 R/B 3.8 21:30:33 10° SW 21:35:45 37° WNW 21:40:59 10° N
Abrixas rocket 3.9 21:33:41 10° NW 21:36:31 26° NNE 21:37:17 24° NE
USA 238 DEB 3.9 21:29:35 10° NNW 21:36:39 65° NE 21:39:58 34° ESE
USA 238 3.9 21:29:41 10° NNW 21:36:44 65° NE 21:40:03 34° ESE
Cosmos 1515 3.5 21:33:40 10° N 21:37:29 72° E 21:37:54 64° SE
Terra 3.7 21:38:02 16° ENE 21:38:03 16° ENE 21:40:57 10° NNE
Cosmos 2315 Rocket 4.0 21:32:58 10° N 21:39:15 87° W 21:43:24 23° S
Cosmos 1975 3.5 21:40:38 39° ENE 21:40:38 39° ENE 21:43:44 10° NNE
MetOp-B 4.1 21:38:09 38° SE 21:40:11 69° ENE 21:45:31 10° N
Cosmos 2219 Rocket 3.4 21:42:47 24° ENE 21:42:47 24° ENE 21:45:49 10° NE
Nadezhda 2 Rocket 4.4 21:37:33 10° S 21:43:42 87° W 21:49:59 10° N
Helios 1A 3.8 21:41:23 23° SSW 21:43:43 48° W 21:47:51 10° NNW
Meteor 1-12 Rocket 4.4 21:43:44 42° SE 21:44:56 49° E 21:50:21 10° NNE
Cosmos 2322 3.7 21:41:11 10° SSW 21:46:50 86° WNW 21:52:33 10° NNE
ERS-1 Rocket 2.9 21:46:40 39° S 21:48:35 85° WSW 21:53:37 10° NNW
ATLAS 3B R/B 2.5 21:44:43 10° NW 21:51:29 89° NE 21:53:55 42° SE
USA 245 3.8 21:51:09 56° ESE 21:51:52 64° ENE 21:56:05 10° N
Cosmos 1500 3.1 21:52:07 84° SSW 21:52:14 89° NW 21:56:08 10° N
Meteor 1-29 3.8 21:49:49 10° N 21:53:08 49° WNW 21:54:01 38° WSW
Cosmos 2360 Rocket 2.7 21:50:28 10° SW 21:56:02 60° WNW 22:01:37 10° NNE
COSMOS 2428 2.6 21:55:48 40° S 21:57:44 64° ESE 22:03:24 10° NNE
Cosmos 1745 Rocket 4.0 22:01:10 49° ESE 22:02:00 53° E 22:07:57 10° NNE
Cosmos 1844 4.0 21:59:42 10° NNW 22:05:12 48° ENE 22:05:53 46° E
H-2A R/B 1.8 22:08:23 67° ESE 22:08:42 70° ENE 22:13:40 10° N
Cosmos 1892 Rocket 3.5 22:06:00 10° N 22:10:26 81° W 22:10:26 81° W
Cosmos 2333 Rocket 3.3 22:13:04 29° ENE 22:13:04 29° ENE 22:16:13 10° NE
NOSS 3-2 (C) 4.4 22:06:14 10° NNW 22:13:31 52° NE 22:16:02 39° E
Cosmos 1238 Rocket 4.0 22:06:51 10° N 22:13:36 80° W 22:15:42 45° S
Cosmos 1437 Rocket 4.4 22:19:12 27° NNE 22:19:12 27° NNE 22:21:06 10° NNE
Cosmos 2333 4.0 22:16:47 53° SSW 22:18:12 86° ESE 22:23:50 10° NNE
Cosmos 1302 Rocket 4.3 22:19:34 30° SW 22:22:08 65° WNW 22:27:24 10° NNE
Cosmos 1544 Rocket 3.8 22:24:22 66° WNW 22:24:22 66° WNW 22:28:35 10° N
Cosmos 1486 Rocket 4.1 22:20:40 10° NNW 22:25:52 68° WSW 22:26:11 66° SW
Cosmos 1386 Rocket 4.4 22:25:46 64° ESE 22:25:57 65° E 22:32:10 10° NNE
Cosmos 2237 Rocket 3.8 22:30:37 21° NE 22:30:37 21° NE 22:32:45 10° NE
Aureole 3 Rocket 4.4 22:19:52 10° NNW 22:28:08 68° W 22:30:15 44° SSW
ATLAS 2AS CENTAUR R/B 4.2 22:23:04 10° WSW 22:30:22 41° NW 22:38:01 10° NNE
SPOT 5 3.3 22:33:36 55° WSW 22:33:38 55° W 22:38:15 10° NNW
GP-B 4.5 22:30:03 10° NNE 22:32:32 31° NNE 22:32:32 31° NNE
BREEZE M DEB (TANK) 3.8 22:29:37 10° WSW 22:33:38 34° W 22:33:38 34° W
Cosmos 1455 Rocket 3.8 22:37:04 53° NW 22:37:04 53° NW 22:40:58 10° N
NOSS 3-4 (A) 3.6 22:41:26 62° ENE 22:41:26 62° ENE 22:46:54 10° NE
NOSS 3-4 (C) 3.6 22:41:38 60° ENE 22:41:38 60° ENE 22:47:01 10° NE
CENTAUR R/B 4.0 22:33:36 10° NNW 22:40:41 36° NE 22:43:21 30° ENE
Lacrosse 5 3.9 22:37:19 10° W 22:41:36 26° NNW 22:45:53 10° NNE
ARGOS 4.4 22:49:54 31° WSW 22:50:50 33° W 22:55:39 10° NNW
Nadezhda 1 Rocket 4.0 22:46:20 10° NNW 22:52:39 72° W 22:53:09 68° SW
Meteor 1-21 4.4 22:56:10 10° NNW 23:01:12 67° NW 23:01:12 67° NW
Cosmos 2278 Rocket 2.6 23:02:01 10° NNW 23:06:39 59° N 23:06:39 59° N
Cosmos 1709 Rocket 4.1 23:10:41 67° NNE 23:10:41 67° NNE 23:16:03 10° N
Cosmos 1844 Rocket 3.7 23:05:22 10° NW 23:10:09 38° W 23:10:09 38° W
Cosmos 2181 Rocket 4.2 23:05:02 10° N 23:10:38 63° NE 23:10:38 63° NE
Terra 3.1 23:16:55 38° NW 23:16:55 38° NW 23:20:01 10° NNW
H-2A R/B 4.1 23:23:50 27° NNW 23:23:50 27° NNW 23:25:51 10° NNW
Cosmos 2219 Rocket 3.1 23:24:26 42° WNW 23:24:49 43° WNW 23:30:12 10° N
NOSS 3-2 (A) 4.3 23:18:04 10° NW 23:25:28 55° WSW 23:25:38 55° WSW
SL-16 R/B 4.0 23:39:45 23° NE 23:39:45 23° NE 23:41:54 10° NNE
H-2A R/B 4.5 23:49:01 13° W 23:49:01 13° W 23:50:54 10° WNW
